Weather History for Bullhead City, AZ

Change the Weather History Date:

Sunday, May 25, 2014

  Actual Average Record
Temperature  
Mean Temperature 86 °F -  
Max Temperature 98 °F 97 °F 109 °F (2001)
Min Temperature 73 °F 75 °F 61 °F (1990)
Cooling Degree Days 20    
Growing Degree Days 36 (Base 50)    
Moisture  
Dew Point 38 °F    
Average Humidity 18    
Maximum Humidity 32    
Minimum Humidity 9    
Precipitation  
Precipitation 0.00 in - - ()
Sea Level Pressure  
Sea Level Pressure 29.81 in    
Wind  
Wind Speed 7 mph (North)    
Max Wind Speed 17 mph    
Max Gust Speed 24 mph    
Visibility 10 miles    
Events      
Averages and records for this station are not official NWS values.
T = Trace of Precipitation, MM = Missing Value Source: NWS Daily Summary

Daily Weather History Graph

Daily Weather History Graph

Search for Another Location

Airport:

Trip Planner

Search our weather history database for the weather conditions in past years. The results will help you decide how hot, cold, wet, or windy it might be!

Date:

Astronomy

May. 25, 2014 Rise Set
Actual Time 5:27 AM MST 7:42 PM MST
Civil Twilight 4:59 AM MST 8:11 PM MST
Nautical Twilight 4:23 AM MST 8:47 PM MST
Astronomical Twilight 3:45 AM MST 9:25 PM MST
Moon 3:27 AM MST (5/25) 4:54 PM MST (5/25)
Length of Visible Light 15h 12m
Length of Day
14h 14m
Waning Crescent, 10% of the Moon is Illuminated
May 25
Waning Crescent
May 28
New
Jun 5
First Quarter
Jun 12
Full
Jun 19
Last Quarter

Hourly Weather History & Observations

Time (MST) Temp. Dew Point Humidity Pressure Visibility Wind Dir Wind Speed Gust Speed Precip Events Conditions
12:15 AM 84.2 °F 41.0 °F 22% 29.86 in 10.0 mi North 4.6 mph - N/A   Clear
12:35 AM 82.4 °F 39.2 °F 21% 29.85 in 10.0 mi East 3.5 mph - N/A   Clear
12:55 AM 82.4 °F 39.2 °F 21% 29.86 in 10.0 mi North 4.6 mph - N/A   Clear
1:15 AM 82.4 °F 41.0 °F 23% 29.85 in 10.0 mi Calm Calm - N/A   Scattered Clouds
1:35 AM 82.4 °F 41.0 °F 23% 29.86 in 10.0 mi ENE 8.1 mph - N/A   Mostly Cloudy
1:55 AM 82.4 °F 41.0 °F 23% 29.84 in 10.0 mi SSW 3.5 mph - N/A   Partly Cloudy
2:15 AM 80.6 °F 41.0 °F 24% 29.85 in 10.0 mi ENE 4.6 mph - N/A   Clear
2:35 AM 80.6 °F 41.0 °F 24% 29.85 in 10.0 mi WNW 3.5 mph - N/A   Clear
2:55 AM 78.8 °F 41.0 °F 26% 29.85 in 10.0 mi NNE 6.9 mph - N/A   Clear
3:15 AM 77.0 °F 44.6 °F 32% 29.84 in 10.0 mi East 6.9 mph - N/A   Clear
3:35 AM 77.0 °F 44.6 °F 32% 29.84 in 10.0 mi ESE 6.9 mph - N/A   Clear
3:55 AM 77.0 °F 42.8 °F 29% 29.85 in 10.0 mi East 5.8 mph - N/A   Clear
4:15 AM 77.0 °F 41.0 °F 28% 29.84 in 10.0 mi ENE 5.8 mph - N/A   Clear
4:35 AM 75.2 °F 41.0 °F 29% 29.85 in 10.0 mi Calm Calm - N/A   Clear
4:55 AM 75.2 °F 41.0 °F 29% 29.85 in 10.0 mi East 5.8 mph - N/A   Clear
5:15 AM 75.2 °F 41.0 °F 29% 29.86 in 10.0 mi Calm Calm - N/A   Clear
5:35 AM 75.2 °F 41.0 °F 29% 29.86 in 10.0 mi ENE 4.6 mph - N/A   Clear
5:55 AM 75.2 °F 41.0 °F 29% 29.87 in 10.0 mi North 3.5 mph - N/A   Clear
6:15 AM 73.4 °F 41.0 °F 31% 29.88 in 10.0 mi NE 4.6 mph - N/A   Clear
6:35 AM 77.0 °F 41.0 °F 28% 29.88 in 10.0 mi North 3.5 mph - N/A   Clear
6:55 AM 75.2 °F 41.0 °F 29% 29.88 in 10.0 mi Calm Calm - N/A   Clear
7:15 AM 77.0 °F 44.6 °F 32% 29.89 in 10.0 mi NNW 3.5 mph - N/A   Clear
8:15 AM 82.4 °F 42.8 °F 25% 29.89 in 10.0 mi North 9.2 mph - N/A   Clear
8:35 AM 84.2 °F 42.8 °F 23% 29.89 in 10.0 mi North 10.4 mph - N/A   Clear
8:55 AM 84.2 °F 42.8 °F 23% 29.89 in 10.0 mi North 11.5 mph - N/A   Clear
9:15 AM 84.2 °F 42.8 °F 23% 29.89 in 10.0 mi NNW 9.2 mph - N/A   Clear
9:35 AM 86.0 °F 42.8 °F 22% 29.89 in 10.0 mi NNW 6.9 mph - N/A   Clear
9:55 AM 86.0 °F 42.8 °F 22% 29.89 in 10.0 mi North 9.2 mph - N/A   Clear
10:15 AM 87.8 °F 42.8 °F 21% 29.88 in 10.0 mi North 10.4 mph - N/A   Clear
10:35 AM 87.8 °F 41.0 °F 19% 29.88 in 10.0 mi North 16.1 mph - N/A   Clear
10:55 AM 89.6 °F 41.0 °F 18% 29.87 in 10.0 mi NNW 13.8 mph 18.4 mph N/A   Clear
11:15 AM 89.6 °F 41.0 °F 18% 29.87 in 10.0 mi North 15.0 mph - N/A   Clear
11:35 AM 91.4 °F 41.0 °F 17% 29.86 in 10.0 mi North 15.0 mph - N/A   Clear
11:55 AM 91.4 °F 41.0 °F 17% 29.86 in 10.0 mi NNW 16.1 mph 20.7 mph N/A   Clear
12:15 PM 91.4 °F 41.0 °F 17% 29.85 in 10.0 mi NNW 13.8 mph - N/A   Clear
12:35 PM 93.2 °F 41.0 °F 16% 29.84 in 10.0 mi NNW 13.8 mph 20.7 mph N/A   Clear
12:55 PM 95.0 °F 39.2 °F 14% 29.83 in 10.0 mi NNW 15.0 mph 20.7 mph N/A   Clear
1:15 PM 93.2 °F 39.2 °F 15% 29.82 in 10.0 mi North 17.3 mph - N/A   Clear
1:35 PM 95.0 °F 37.4 °F 13% 29.81 in 10.0 mi North 16.1 mph 19.6 mph N/A   Clear
1:55 PM 95.0 °F 33.8 °F 12% 29.81 in 10.0 mi North 13.8 mph - N/A   Clear
2:15 PM 95.0 °F 33.8 °F 12% 29.80 in 10.0 mi North 16.1 mph 20.7 mph N/A   Clear
2:35 PM 96.8 °F 35.6 °F 12% 29.79 in 10.0 mi North 15.0 mph - N/A   Clear
2:55 PM 96.8 °F 37.4 °F 13% 29.78 in 10.0 mi North 17.3 mph - N/A   Clear
3:15 PM 98.6 °F 37.4 °F 12% 29.77 in 10.0 mi NNW 13.8 mph - N/A   Clear
3:35 PM 98.6 °F 35.6 °F 11% 29.76 in 10.0 mi North 17.3 mph 23.0 mph N/A   Clear
3:55 PM 98.6 °F 32.0 °F 10% 29.75 in 10.0 mi North 12.7 mph 24.2 mph N/A   Clear
4:15 PM 98.6 °F 33.8 °F 10% 29.75 in 10.0 mi NNW 11.5 mph - N/A   Clear
4:35 PM 98.6 °F 30.2 °F 9% 29.74 in 10.0 mi North 13.8 mph 20.7 mph N/A   Clear
4:55 PM 98.6 °F 32.0 °F 10% 29.74 in 10.0 mi North 15.0 mph - N/A   Clear
5:15 PM 98.6 °F 32.0 °F 10% 29.73 in 10.0 mi NNW 9.2 mph - N/A   Clear
5:35 PM 98.6 °F 32.0 °F 10% 29.73 in 10.0 mi NNW 10.4 mph - N/A   Clear
5:55 PM 98.6 °F 32.0 °F 10% 29.72 in 10.0 mi NNW 11.5 mph - N/A   Clear
6:15 PM 98.6 °F 32.0 °F 10% 29.72 in 10.0 mi NNW 6.9 mph - N/A   Clear
6:35 PM 98.6 °F 32.0 °F 10% 29.72 in 10.0 mi NNW 8.1 mph - N/A   Clear
6:55 PM 98.6 °F 32.0 °F 10% 29.72 in 10.0 mi NNW 6.9 mph - N/A   Clear
7:15 PM 96.8 °F 32.0 °F 10% 29.73 in 10.0 mi NNW 8.1 mph - N/A   Clear
7:35 PM 95.0 °F 32.0 °F 11% 29.73 in 10.0 mi North 6.9 mph - N/A   Clear
8:15 PM 93.2 °F 32.0 °F 11% 29.74 in 10.0 mi ENE 3.5 mph - N/A   Clear
8:35 PM 93.2 °F 32.0 °F 11% 29.75 in 10.0 mi Calm Calm - N/A   Clear
8:55 PM 91.4 °F 32.0 °F 12% 29.75 in 10.0 mi ESE 5.8 mph - N/A   Clear
9:15 PM 89.6 °F 32.0 °F 13% 29.76 in 10.0 mi ESE 5.8 mph - N/A   Clear
9:35 PM 89.6 °F 32.0 °F 13% 29.76 in 10.0 mi ESE 8.1 mph - N/A   Clear
9:55 PM 89.6 °F 32.0 °F 13% 29.77 in 10.0 mi WSW 4.6 mph - N/A   Clear
10:15 PM 89.6 °F 32.0 °F 13% 29.77 in 10.0 mi East 3.5 mph - N/A   Clear
10:35 PM 89.6 °F 32.0 °F 13% 29.77 in 10.0 mi Calm Calm - N/A   Clear
10:55 PM 86.0 °F 32.0 °F 14% 29.77 in 10.0 mi Calm Calm - N/A   Clear
11:15 PM 86.0 °F 32.0 °F 14% 29.77 in 10.0 mi Calm Calm - N/A   Unknown
11:35 PM 86.0 °F 32.0 °F 14% 29.77 in 10.0 mi Calm Calm - N/A   Clear
11:55 PM 84.2 °F 32.0 °F 15% 29.77 in 10.0 mi Calm Calm - N/A   Clear